Total_Precipitation_Accumulation
0.17 0.21 0.25 0.25 0.23 0.21 0.21 0.20 0.24 0.29 0.37 0.44 0.45 0.53 0.65 0.71 0.66 0.43 0.19 0.07 0.09 0.18 0.32 0.11 0.10 0.09 0.14 0.24 0.55 0.85 1.05 0.66 0.13 0.04 0.02 0.00 0.00 0.00 0.00 0.00 0.01 0.01 0.12 0.10 0.17
0.17 0.23 0.25 0.25 0.26 0.23 0.24 0.25 0.32 0.36 0.45 0.50 0.58 0.67 0.61 0.59 0.46 0.40 0.26 0.34 0.34 0.51 0.32 0.21 0.16 0.22 0.25 0.32 0.81 1.32 1.29 0.40 0.09 0.06 0.02 0.04 0.01 0.00 0.00 0.01 0.05 0.06 0.04 0.05 0.16
0.23 0.26 0.26 0.29 0.29 0.30 0.30 0.34 0.39 0.37 0.36 0.43 0.54 0.68 0.77 0.73 0.40 0.13 0.21 0.30 0.53 0.71 0.45 0.20 0.25 0.36 0.27 0.40 0.54 0.99 1.06 0.29 0.29 0.26 0.22 0.11 0.03 0.00 0.00 0.01 0.01 0.04 0.08 0.11 0.11
0.29 0.32 0.34 0.29 0.32 0.40 0.38 0.40 0.36 0.30 0.31 0.33 0.36 0.57 0.84 0.74 0.43 0.14 0.14 0.27 0.51 0.95 0.65 0.48 0.44 0.47 0.20 0.20 0.24 0.50 0.59 0.43 0.47 0.46 0.43 0.15 0.05 0.01 0.00 0.00 0.00 0.04 0.13 0.21 0.29
0.40 0.45 0.36 0.34 0.33 0.42 0.42 0.28 0.29 0.27 0.23 0.18 0.31 0.86 0.78 0.55 0.14 0.16 0.11 0.19 0.60 0.95 0.53 0.43 0.40 0.30 0.11 0.08 0.17 0.32 0.44 0.54 0.71 0.62 0.42 0.23 0.14 0.03 0.01 0.00 0.02 0.03 0.08 0.18 0.40
0.48 0.47 0.36 0.38 0.43 0.41 0.25 0.24 0.27 0.29 0.38 0.24 0.47 0.71 0.66 0.32 0.04 0.10 0.12 0.39 0.62 0.78 0.61 0.52 0.45 0.30 0.17 0.09 0.18 0.13 0.42 0.66 0.94 0.78 0.81 0.33 0.19 0.10 0.02 0.02 0.10 0.16 0.18 0.13 0.20
0.58 0.52 0.40 0.47 0.42 0.33 0.22 0.27 0.35 0.29 0.32 0.35 0.58 0.62 0.44 0.10 0.08 0.17 0.12 0.54 0.97 0.68 0.70 0.58 0.66 0.63 0.38 0.19 0.09 0.18 0.55 0.92 1.06 1.21 1.09 0.52 0.49 0.17 0.03 0.04 0.10 0.13 0.18 0.23 0.29
0.64 0.56 0.47 0.53 0.44 0.40 0.34 0.41 0.53 0.61 0.66 0.56 0.66 0.68 0.31 0.02 0.09 0.16 0.22 0.37 0.79 1.04 0.98 1.08 0.75 0.82 0.49 0.29 0.22 0.38 0.72 0.82 0.90 1.27 1.70 0.92 0.48 0.11 0.07 0.06 0.06 0.14 0.21 0.23 0.24
0.69 0.60 0.55 0.61 0.56 0.48 0.47 0.34 0.44 0.46 0.75 0.85 0.83 0.60 0.27 0.15 0.10 0.09 0.23 0.39 0.71 1.48 1.84 2.01 1.67 1.18 0.58 0.44 0.44 0.46 0.39 0.47 0.56 0.74 1.59 1.09 0.56 0.16 0.09 0.04 0.01 0.05 0.12 0.20 0.28
0.68 0.62 0.60 0.58 0.65 0.66 0.67 0.67 0.56 0.57 0.69 1.13 0.92 0.73 0.21 0.22 0.18 0.20 0.30 0.50 0.79 1.61 2.37 2.77 2.60 1.48 0.55 0.48 0.29 0.10 0.15 0.23 0.43 0.48 0.89 1.08 0.51 0.34 0.11 0.03 0.01 0.00 0.02 0.02 0.08
0.74 0.62 0.56 0.62 0.69 0.57 0.79 1.13 0.93 0.94 1.09 0.99 0.43 0.34 0.27 0.40 0.47 0.50 0.53 0.67 1.42 1.97 2.27 2.37 1.92 1.17 0.31 0.17 0.11 0.07 0.11 0.11 0.27 0.41 0.42 0.53 0.46 0.43 0.14 0.03 0.01 0.01 0.00 0.00 0.01
0.65 0.58 0.62 0.64 0.69 0.94 1.22 1.22 0.72 0.62 0.82 0.56 0.14 0.20 0.16 0.38 0.75 0.68 0.80 1.36 1.71 2.03 1.73 1.91 1.02 0.48 0.43 0.28 0.25 0.18 0.16 0.13 0.27 0.46 0.38 0.28 0.22 0.23 0.30 0.03 0.00 0.00 0.00 0.00 0.00
0.55 0.60 0.69 0.78 0.79 1.06 1.04 0.60 0.36 0.74 1.15 0.87 0.35 0.36 0.35 0.46 0.82 0.73 1.14 1.54 1.62 1.51 1.14 1.18 0.59 0.26 0.52 0.46 0.35 0.18 0.16 0.12 0.15 0.28 0.31 0.29 0.13 0.04 0.15 0.11 0.01 0.00 0.00 0.00 0.00
0.64 0.70 0.89 1.03 1.24 0.84 0.75 0.47 0.60 1.08 1.41 1.10 0.74 0.78 0.51 1.01 1.20 0.56 1.63 1.59 1.70 1.35 1.02 1.17 0.68 0.43 0.38 0.65 0.28 0.21 0.10 0.16 0.28 0.25 0.16 0.28 0.17 0.00 0.02 0.06 0.04 0.00 0.00 0.00 0.00
1.03 0.96 0.84 1.19 1.19 0.99 0.70 0.42 0.81 1.47 1.52 0.99 0.89 0.69 0.87 0.88 0.66 0.79 1.30 1.20 1.09 1.08 1.05 0.92 0.55 0.63 0.46 0.60 0.22 0.28 0.10 0.18 0.36 0.48 0.40 0.18 0.20 0.01 0.00 0.01 0.00 0.00 0.00 0.00 0.00
1.11 1.12 1.04 0.96 0.93 0.87 0.78 0.54 1.26 1.55 1.83 1.86 1.42 1.24 0.76 0.55 0.51 0.97 1.32 0.99 0.91 0.94 0.95 0.56 0.41 0.83 0.67 0.50 0.33 0.30 0.32 0.36 0.60 0.65 0.75 0.30 0.07 0.01 0.00 0.00 0.00 0.00 0.00 0.00 0.00
1.09 1.31 1.29 0.74 0.77 0.76 1.25 1.07 1.41 0.99 0.99 1.34 1.11 0.56 0.38 0.50 0.81 1.15 1.22 0.79 1.11 1.49 1.38 1.21 0.96 0.81 0.68 0.73 0.79 0.62 0.72 1.16 1.13 1.28 0.46 0.15 0.16 0.06 0.00 0.00 0.00 0.00 0.00 0.00 0.00
1.35 1.43 1.46 1.00 0.85 0.89 1.71 1.11 0.84 0.55 0.85 0.80 0.41 0.38 0.47 0.37 0.55 0.75 0.98 0.50 0.31 0.45 0.72 0.92 1.33 1.07 0.65 0.65 0.97 0.70 0.60 0.69 0.47 0.35 0.17 0.08 0.26 0.05 0.00 0.00 0.00 0.00 0.00 0.00 0.00
1.71 1.90 1.68 1.45 1.12 1.20 1.35 0.95 0.67 0.78 0.90 0.46 0.31 0.35 0.38 0.17 0.28 0.53 0.43 0.22 0.11 0.14 0.53 0.42 0.64 0.51 0.59 0.34 0.64 0.77 0.67 0.36 0.50 0.18 0.27 0.09 0.08 0.04 0.01 0.00 0.00 0.00 0.00 0.00 0.00
2.22 2.55 1.49 1.22 1.37 1.27 1.11 0.83 0.46 0.38 0.28 0.17 0.26 0.13 0.10 0.06 0.11 0.11 0.15 0.04 0.02 0.02 0.18 0.30 0.52 0.69 0.66 0.56 0.60 0.56 0.33 0.51 1.04 0.61 0.19 0.06 0.02 0.04 0.00 0.00 0.00 0.00 0.00 0.00 0.00
2.31 2.44 1.45 1.32 1.85 1.74 1.36 0.94 0.30 0.17 0.14 0.13 0.06 0.04 0.02 0.01 0.02 0.03 0.03 0.00 0.00 0.00 0.14 0.34 0.57 0.76 0.97 0.74 0.50 0.60 0.59 0.39 0.52 0.43 0.25 0.11 0.02 0.00 0.00 0.01 0.01 0.01 0.00 0.00 0.00
2.13 1.91 1.53 1.75 2.19 1.59 0.99 0.67 0.33 0.16 0.17 0.13 0.10 0.02 0.01 0.01 0.01 0.02 0.01 0.01 0.00 0.02 0.16 0.32 0.68 0.73 0.62 0.17 0.13 0.23 0.24 0.18 0.66 0.43 0.37 0.32 0.13 0.00 0.01 0.01 0.01 0.01 0.01 0.01 0.01
1.87 1.66 2.27 1.24 0.96 0.67 0.38 0.29 0.24 0.10 0.13 0.15 0.07 0.01 0.01 0.02 0.02 0.01 0.00 0.00 0.00 0.02 0.19 0.44 1.00 0.79 0.69 0.48 0.49 0.69 0.33 0.37 0.62 0.99 0.75 0.40 0.17 0.00 0.00 0.00 0.01 0.01 0.02 0.01 0.01
1.72 1.74 3.19 2.08 0.55 0.17 0.29 0.33 0.26 0.06 0.07 0.13 0.10 0.03 0.04 0.03 0.00 0.01 0.00 0.00 0.00 0.00 0.16 0.72 0.81 0.85 0.70 0.62 0.88 0.72 0.34 0.53 1.07 1.14 0.37 0.18 0.07 0.02 0.01 0.01 0.02 0.04 0.04 0.02 0.02
1.17 0.76 0.76 0.88 0.44 0.07 0.27 0.29 0.36 0.23 0.12 0.17 0.11 0.04 0.06 0.03 0.01 0.01 0.00 0.00 0.00 0.00 0.16 0.66 1.15 1.28 0.54 0.32 0.69 0.60 0.31 0.43 0.98 0.55 0.51 0.16 0.06 0.03 0.04 0.05 0.07 0.09 0.08 0.06 0.06
0.74 0.58 0.11 0.05 0.03 0.02 0.17 0.27 0.34 0.34 0.27 0.19 0.13 0.04 0.04 0.05 0.01 0.01 0.00 0.00 0.01 0.01 0.15 0.55 0.95 0.81 0.34 0.20 0.40 0.47 0.23 0.35 0.56 0.41 0.30 0.12 0.11 0.06 0.04 0.06 0.06 0.17 0.11 0.08 0.08
0.69 0.50 0.15 0.07 0.04 0.04 0.06 0.12 0.23 0.37 0.24 0.09 0.08 0.11 0.07 0.03 0.01 0.00 0.00 0.00 0.00 0.01 0.07 0.36 0.63 0.82 0.65 0.41 0.55 0.52 0.26 0.31 0.41 0.35 0.24 0.14 0.12 0.04 0.05 0.12 0.27 0.46 0.11 0.05 0.02